| time (UTC) | temp C | wind direction | speed KPH | gust KPH | rain 1hr cm | rain 24hr cm | rain mn cm | humidity % | barometer mb |
| 20260506201555 | 4 | 25 | 1.6 | 6.4 | 0.03 | 3.40 | 2.24 | 99 | 1011.5 |
| 20260506200057 | 4 | 317 | 0.0 | 6.4 | 0.08 | 3.40 | 2.24 | 99 | 1011.3 |
| 20260506194554 | 4 | 271 | 0.0 | 1.6 | 0.10 | 3.86 | 2.24 | 99 | 1011.3 |
| 20260506193053 | 4 | 271 | 0.0 | 0.0 | 0.13 | 3.86 | 2.24 | 99 | 1011.3 |
| 20260506191553 | 3 | 271 | 0.0 | 6.4 | 0.13 | 3.84 | 2.21 | 99 | 1011.1 |
| 20260506190051 | 3 | 40 | 1.6 | 8.0 | 0.10 | 3.78 | 2.16 | 99 | 1011.3 |
| 20260506184551 | 4 | 49 | 3.2 | 6.4 | 0.08 | 3.89 | 2.13 | 98 | 1011.3 |
| 20260506183049 | 4 | 65 | 0.0 | 4.8 | 0.10 | 3.86 | 2.11 | 99 | 1011.4 |
| 20260506181548 | 4 | 39 | 1.6 | 6.4 | 0.15 | 3.84 | 2.08 | 99 | 1011.3 |
| 20260506180047 | 4 | 19 | 0.0 | 4.8 | 0.18 | 3.81 | 2.06 | 99 | 1011.5 |
| 20260506174555 | 4 | 336 | 0.0 | 1.6 | 0.20 | 3.81 | 2.06 | 99 | 1011.6 |
| 20260506173050 | 3 | 300 | 0.0 | 6.4 | 0.20 | 3.76 | 2.01 | 99 | 1011.8 |
| 20260506171544 | 3 | 260 | 0.0 | 4.8 | 0.20 | 3.68 | 1.93 | 99 | 1011.9 |
| 20260506170046 | 3 | 35 | 1.6 | 9.7 | 0.23 | 3.63 | 1.88 | 99 | 1011.6 |
| 20260506164544 | 3 | 76 | 0.0 | 9.7 | 0.30 | 3.61 | 1.85 | 99 | 1011.7 |
| 20260506163048 | 3 | 352 | 0.0 | 8.0 | 0.36 | 3.56 | 1.80 | 98 | 1011.8 |
| 20260506161541 | 3 | 34 | 1.6 | 6.4 | 0.36 | 3.48 | 1.73 | 98 | 1012.0 |
| 20260506160040 | 4 | 124 | 0.0 | 11.3 | 0.33 | 3.40 | 1.65 | 98 | 1012.0 |
| 20260506154540 | 4 | 41 | 0.0 | 8.0 | 0.28 | 3.30 | 1.55 | 98 | 1012.3 |
| 20260506153042 | 4 | 111 | 1.6 | 6.4 | 0.23 | 3.20 | 1.42 | 98 | 1012.0 |
| 20260506151534 | 4 | 131 | 0.0 | 8.0 | 0.18 | 3.12 | 1.37 | 98 | 1011.9 |
| 20260506150040 | 4 | 21 | 0.0 | 4.8 | 0.18 | 3.07 | 1.32 | 98 | 1011.6 |
| 20260506144552 | 5 | 73 | 1.6 | 4.8 | 0.15 | 3.02 | 1.27 | 98 | 1011.7 |
| 20260506143036 | 5 | 25 | 0.0 | 3.2 | 0.15 | 2.97 | 1.22 | 98 | 1011.7 |
| 20260506141533 | 5 | 309 | 0.0 | 8.0 | 0.15 | 2.92 | 1.19 | 98 | 1011.9 |
| 20260506140043 | 5 | 49 | 0.0 | 3.2 | 0.13 | 2.87 | 1.14 | 98 | 1012.0 |
| 20260506134534 | 5 | 44 | 1.6 | 6.4 | 0.15 | 2.84 | 1.12 | 98 | 1011.7 |
| 20260506133029 | 5 | 326 | 1.6 | 9.7 | 0.20 | 2.82 | 1.07 | 97 | 1011.8 |
| 20260506131535 | 5 | 314 | 0.0 | 4.8 | 0.23 | 2.79 | 1.04 | 97 | 1011.8 |
| 20260506130029 | 5 | 49 | 1.6 | 11.3 | 0.28 | 2.77 | 1.02 | 97 | 1012.3 |
| 20260506124526 | 5 | 99 | 1.6 | 24.1 | 0.25 | 2.72 | 0.97 | 97 | 1011.9 |
| 20260506123035 | 5 | 87 | 4.8 | 9.7 | 0.18 | 2.62 | 0.86 | 97 | 1011.8 |
| 20260506121522 | 5 | 290 | 0.0 | 11.3 | 0.15 | 2.57 | 0.81 | 97 | 1012.7 |
| 20260506120025 | 6 | 337 | 1.6 | 8.0 | 0.10 | 2.49 | 0.71 | 97 | 1012.6 |
| 20260506114520 | 6 | 153 | 0.0 | 3.2 | 0.08 | 2.46 | 0.71 | 97 | 1012.7 |
| 20260506113017 | 6 | 269 | 0.0 | 6.4 | 0.08 | 2.44 | 0.69 | 96 | 1012.9 |
| 20260506111515 | 6 | 260 | 0.0 | 4.8 | 0.05 | 2.41 | 0.66 | 96 | 1012.5 |
| 20260506110014 | 6 | 227 | 0.0 | 4.8 | 0.03 | 2.39 | 0.64 | 96 | 1012.2 |
| 20260506104524 | 6 | 276 | 0.0 | 3.2 | 0.03 | 2.39 | 0.64 | 96 | 1012.2 |
| 20260506103012 | 6 | 252 | 1.6 | 4.8 | 0.08 | 2.36 | 0.61 | 97 | 1012.1 |
| 20260506101508 | 6 | 123 | 0.0 | 3.2 | 0.08 | 2.36 | 0.61 | 97 | 1012.0 |
| 20260506100016 | 6 | 24 | 1.6 | 8.0 | 0.08 | 2.36 | 0.61 | 97 | 1012.5 |
| 20260506094507 | 7 | 200 | 3.2 | 16.1 | 0.05 | 2.34 | 0.58 | 98 | 1013.5 |
| 20260506093003 | 7 | 334 | 1.6 | 16.1 | 0.00 | 2.29 | 0.53 | 97 | 1012.6 |
| 20260506091502 | 7 | 212 | 3.2 | 0.0 | 0.00 | 0.00 | 0.53 | 98 | 1013.1 |
| 20260506090059 | 7 | 326 | 1.6 | 9.7 | 0.10 | 2.29 | 0.53 | 98 | 1012.5 |
| 20260506084600 | 8 | 257 | 0.0 | 11.3 | 0.23 | 2.29 | 0.53 | 98 | 1012.5 |
| 20260506083058 | 8 | 116 | 0.0 | 8.0 | 0.23 | 2.29 | 0.53 | 98 | 1012.8 |
| 20260506081605 | 8 | 210 | 0.0 | 6.4 | 0.13 | 2.18 | 0.43 | 98 | 1012.6 |
| 20260506073045 | 9 | 49 | 1.6 | 9.7 | 0.03 | 2.06 | 0.30 | 98 | 1012.6 |
| 20260506071544 | 9 | 116 | 0.0 | 6.4 | 0.03 | 2.06 | 0.30 | 98 | 1012.2 |
| 20260506061636 | 10 | 34 | 0.0 | 1.6 | 0.03 | 2.03 | 0.28 | 99 | 1012.3 |
| 20260506044519 | 10 | 83 | 0.0 | 1.6 | 0.20 | 1.91 | 0.15 | 98 | 1012.4 |
| 20260506043018 | 10 | 83 | 0.0 | 1.6 | 0.46 | 1.91 | 0.15 | 97 | 1012.4 |
| 20260506041519 | 10 | 83 | 0.0 | 4.8 | 0.43 | 1.88 | 0.13 | 97 | 1012.4 |
| 20260506040014 | 10 | 96 | 0.0 | 0.0 | 0.41 | 1.75 | 0.00 | 96 | 1013.0 |
| 20260506034513 | 10 | 96 | 0.0 | 3.2 | 0.46 | 1.70 | 1.70 | 96 | 1012.8 |
| 20260506033008 | 10 | 92 | 1.6 | 4.8 | 0.33 | 1.42 | 1.42 | 94 | 1012.4 |
| 20260506031504 | 11 | 219 | 0.0 | 6.4 | 0.36 | 1.42 | 1.42 | 92 | 1012.2 |
| 20260506030059 | 12 | 169 | 4.8 | 16.1 | 0.25 | 1.35 | 1.35 | 92 | 1012.5 |
| 20260506024559 | 12 | 318 | 1.6 | 4.8 | 0.15 | 1.24 | 1.24 | 94 | 1011.6 |
| 20260506023004 | 13 | 249 | 1.6 | 6.4 | 0.03 | 1.12 | 1.12 | 90 | 1011.7 |
| 20260506021556 | 13 | 197 | 1.6 | 6.4 | 0.00 | 1.09 | 1.09 | 87 | 1011.4 |
| 20260506020057 | 14 | 311 | 0.0 | 6.4 | 0.00 | 1.09 | 1.09 | 86 | 1011.5 |
| 20260506014556 | 14 | 248 | 0.0 | 14.5 | 0.00 | 1.09 | 1.09 | 86 | 1011.6 |
| 20260506013107 | 13 | 216 | 3.2 | 9.7 | 0.00 | 1.09 | 1.09 | 87 | 1011.2 |
| 20260506011558 | 13 | 223 | 0.0 | 3.2 | 0.00 | 1.09 | 1.09 | 92 | 1010.4 |
| 20260506010110 | 12 | 223 | 0.0 | 4.8 | 0.00 | 1.09 | 1.09 | 92 | 1010.6 |
| 20260506004554 | 13 | 221 | 0.0 | 4.8 | 0.00 | 1.09 | 1.09 | 91 | 1010.3 |
| 20260506003049 | 13 | 236 | 1.6 | 4.8 | 0.00 | 1.09 | 1.09 | 92 | 1010.3 |
| 20260506001555 | 13 | 238 | 0.0 | 3.2 | 0.00 | 1.09 | 1.09 | 90 | 1010.1 |
| 20260506000051 | 13 | 37 | 0.0 | 6.4 | 0.00 | 1.09 | 1.09 | 92 | 1009.9 |
| 20260505234548 | 13 | 232 | 0.0 | 1.6 | 0.00 | 1.09 | 1.09 | 93 | 1009.9 |
| 20260505233057 | 13 | 231 | 1.6 | 4.8 | 0.00 | 1.09 | 1.09 | 93 | 1010.0 |
| 20260505231546 | 13 | 84 | 0.0 | 4.8 | 0.00 | 1.09 | 1.09 | 90 | 1009.7 |
| 20260505230053 | 14 | 293 | 0.0 | 8.0 | 0.03 | 1.09 | 1.09 | 89 | 1009.5 |
| 20260505224545 | 14 | 193 | 0.0 | 6.4 | 0.03 | 1.09 | 1.09 | 89 | 1009.3 |
| 20260505223046 | 14 | 129 | 1.6 | 11.3 | 0.03 | 1.09 | 1.09 | 88 | 1009.1 |
| 20260505221544 | 13 | 214 | 6.4 | 22.5 | 0.03 | 1.09 | 1.09 | 89 | 1009.6 |
| 20260505220048 | 13 | 226 | 0.0 | 8.0 | 0.03 | 1.07 | 1.07 | 91 | 1009.3 |
| 20260505214540 | 13 | 140 | 0.0 | 9.7 | 0.10 | 1.07 | 1.07 | 91 | 1009.2 |
| 20260505213039 | 13 | 199 | 1.6 | 9.7 | 0.28 | 1.07 | 1.07 | 93 | 1009.2 |
| 20260505211537 | 13 | 129 | 0.0 | 8.0 | 0.48 | 1.07 | 1.07 | 93 | 1009.3 |
| 20260505210036 | 13 | 150 | 4.8 | 17.7 | 0.46 | 1.04 | 1.04 | 92 | 1009.0 |
| 20260505204535 | 13 | 138 | 3.2 | 9.7 | 0.38 | 0.97 | 0.97 | 89 | 1008.7 |
| 20260505203037 | 15 | 289 | 3.2 | 19.3 | 0.18 | 0.71 | 0.71 | 86 | 1008.8 |